Location: Wiler
(46.4041°N, 7.7840°E)
Time: 23:13:01
(UTC+00:00)

Cosmos 1934 Rocket - Pass Details

Date: 09 April 2020
Orbit: 937 x 1000 km, 83.0° (Epoch: 04 June)

Event Time Altitude Azimuth Distance (km) Brightness Sun altitude
Rises 22:03:18 0° 347° (NNW) 3,694 8.1 -32.2°
Reaches altitude 10° 22:05:53 10° 343° (NNW) 2,733 7.2 -32.4°
Enters shadow 22:11:32 53° 283° (WNW) 1,171 4.5 -32.8°
